Regional Weather Roundup
Issued by NWS

Home | Current Version | Previous Version | Text Only | Print | Product List | Glossary On
Versions: 1 2 3 4 5 6 7 8 9 10 11 12 13 14 15 16 17 18 19 20 21 22 23 24 25 26 27 28 29 30 31 32 33 34 35 36 37 38 39 40 41 42 43 44 45 46 47 48 49 50
000
ASUS43 KDTX 202310
RWRMI
MICHIGAN HOURLY REGIONAL WEATHER ROUNDUP
NATIONAL WEATHER SERVICE DETROIT/PONTIAC MI
700 PM EDT SUN AUG 20 2017

NOTE: "FAIR" INDICATES FEW OR NO CLOUDS BELOW 12,000 FEET WITH NO
SIGNIFICANT WEATHER AND/OR OBSTRUCTION TO VISIBILITY.

MIZ047>049-052>055-059>063-066>070-074>076-081>083-210000-
SOUTHEAST LOWER MICHIGAN

CITY           SKY/WX    TMP DP  RH WIND       PRES   REMARKS
ADRIAN         SUNNY     81  63  54 CALM      30.07S
ALMA           CLOUDY    78  61  54 CALM      30.04F
ANN ARBOR      MOSUNNY   82  62  50 S7        30.06R
BAD AXE        MOSUNNY   78  57  49 CALM      30.06S
CARO           MOSUNNY   81  59  47 CALM      30.04S
DETROIT CITY   CLOUDY    81  61  50 S9        30.05S
DETROIT        CLOUDY    81  64  56 S9        30.07R
FLINT          SUNNY     81  60  48 W5        30.05S
GROSSE ILE     CLOUDY    79  65  62 SE5       30.05S
HILLSDALE      MOSUNNY   79  64  61 CALM      30.07S
HOWELL         SUNNY     82  60  46 S6        30.06S

CITY           SKY/WX    TMP DP  RH WIND       PRES   REMARKS
JACKSON        SUNNY     80  62  54 SW6       30.06S
LAMBERTVILLE   SUNNY     80  66  64 E3        30.06R
LANSING        CLOUDY    82  59  45 W6        30.05S
LAPEER         PTSUNNY   82  60  47 S6        30.06S
MASON          SUNNY     83  61  46 CALM      30.06S
MONROE         CLOUDY    80  66  63 CALM      30.05F
MT. CLEMENS    MOSUNNY   79  63  57 S10       30.04S
PONTIAC        PTSUNNY   81  59  47 SW5       30.05S
PORT HOPE        N/A     75  65  70 CALM      30.03S
PORT HURON     SUNNY     81  61  50 S6        30.06S
TRI CITIES     CLOUDY    80  64  58 S5        30.05S
MIDLAND        FAIR      80  63  54 S3        30.03S
TROY           CLOUDY    83  59  44 S6        30.07S
SAGINAW HB     MOSUNNY   79  59  50 SW5       30.04S
$$
MIZ043>046-050>051-056>058-064>065-071>073-077>080-210000-
SOUTHWEST LOWER MICHIGAN

CITY           SKY/WX    TMP DP  RH WIND       PRES   REMARKS
BATTLE CREEK   MOSUNNY   82  61  48 SW6       30.06S
BENTON HARBOR  CLOUDY    83  65  54 CALM      30.03S
BIG RAPIDS     CLOUDY    76  62  62 S9        30.03F
COLDWATER      CLOUDY    81  63  54 CALM      30.06S
FREMONT        FAIR      77  63  61 SW3       30.03S
HOLLAND        CLOUDY    80  63  55 SW6       30.04S
GRAND RAPIDS   PTSUNNY   81  61  50 S5        30.03F
IONIA          FAIR      81  60  48 W5        30.04S
KALAMAZOO      CLOUDY    83  57  41 SW7       30.05S
LUDINGTON      MOSUNNY   75  61  61 S7        30.00F
MARSHALL       PTSUNNY   82  61  49 SW3       30.05S
MOUNT PLEASANT MOSUNNY   82  58  44 SW3       30.03S
MUSKEGON       CLOUDY    78  61  55 S6        30.02F
SOUTH HAVEN    CLOUDY    81  64  55 CALM      30.02F
$$
MIZ016>042-210000-
NORTHERN LOWER MICHIGAN

CITY           SKY/WX    TMP DP  RH WIND       PRES   REMARKS
ALPENA         MOSUNNY   80  62  54 SW7       29.99F
BEAVER ISLAND  CLOUDY    74  61  63 SW12G21   29.95S
BELLAIRE       CLOUDY    78  61  55 S5        29.98S
CADILLAC       CLOUDY    77  61  56 S7        30.03F
CHARLEVOIX     PTSUNNY   77  61  56 S8        29.99F
FRANKFORT      CLOUDY    75  64  67 SW6       29.99S
GAYLORD        CLOUDY    75  61  61 SW8       30.02S
GRAYLING       MOSUNNY   76  58  53 SW6       30.03S
HARBOR SPRINGS MOSUNNY   74  64  69 SW6       29.96F
HOUGHTON LAKE  MOSUNNY   76  62  62 SW6       30.04S
MANISTEE       CLOUDY    76  64  66 VRB6      29.99F
OSCODA         MOSUNNY   79  58  47 S10G17    30.01S
PELLSTON       CLOUDY    77  64  64 S5        29.97F
ROGERS CITY    MOSUNNY   75  65  70 CALM      29.99F
TRAVERSE CITY  CLOUDY    79  62  56 VRB6      29.97S
$$
MIZ007>008-015-210000-
EASTERN UPPER MICHIGAN

CITY           SKY/WX    TMP DP  RH WIND       PRES   REMARKS
KINROSS        CLOUDY    74  59  59 SW10G16   29.95S
MACKINAC ISLAN CLOUDY    74  63  68 SW6       29.96F
NEWBERRY       PTSUNNY   72  65  78 S15       29.93S
S. S. MARIE    PTSUNNY   76  59  55 SW14      29.94S
MUNISING         N/A     79  67  66 S9G20     29.87S
$$
MIZ004>006-011>014-085-210000-
CENTRAL UPPER MICHIGAN

CITY           SKY/WX    TMP DP  RH WIND       PRES   REMARKS
MANISTIQUE     CLOUDY    70  64  81 SW10      29.93S
ESCANABA       CLOUDY    76  67  73 S14       29.91R
SAWYER-GWINN   SUNNY     79  66  65 SW9       29.90R
$$
MIZ001>003-009>011-084-210000-
WESTERN UPPER MICHIGAN

CITY           SKY/WX    TMP DP  RH WIND       PRES   REMARKS
IRON MOUNTAIN  SUNNY     82  65  56 SW5       29.90S
HOUGHTON       SUNNY     73  63  70 W21G28    29.87R
COPPER HARBOR    N/A     75  64  68 NW12G20   29.83S
IRONWOOD       CLOUDY    74  67  78 W3        29.93R
$$

ABBREVIATIONS USED IN REMARKS
   TC - TEMPERATURE IN CELSIUS
  WCI - WIND CHILL INDEX
   HX - HEAT INDEX
  VSB - VISIBILITY




USA.gov is the U.S. government's official web portal to all federal, state and local government web resources and services.